Regional Weather Roundup
Issued by NWS

Home | Current Version | Previous Version | Text Only | Print | Product List | Glossary Off
Versions: 1 2 3 4 5 6 7 8 9 10 11 12 13 14 15 16 17 18 19 20 21 22 23 24 25 26 27 28 29 30 31 32 33 34 35 36 37 38 39 40 41 42 43 44 45 46 47 48 49 50

000
ASUS43 KOAX 222010
RWRNE

WEATHER ROUNDUP FOR NEBRASKA
NATIONAL WEATHER SERVICE OMAHA NE
300 PM CDT SUN APR 22 2018

NOTES: SATELLITE DATA IS BEING USED TO AUGMENT CLOUD COVER ABOVE
       12000 FEET.
       "FAIR" INDICATES FEW OR NO CLOUDS BELOW 12,000 FEET WITH NO
       SIGNIFICANT WEATHER AND/OR OBSTRUCTIONS TO VISIBILITY.


NEZ001>004-019>022-054>056-222100-
NEBRASKA PANHANDLE

CITY           SKY/WX    TMP DP  RH WIND       PRES   REMARKS
SCOTTSBLUFF    SUNNY     58  42  55 CALM      30.14F
ALLIANCE       SUNNY     57  39  51 S6        30.14F
CHADRON        SUNNY     62  37  39 S5        30.11F
GORDON         FAIR      55  37  50 CALM      30.14S
KIMBALL        SUNNY     59  34  39 N7        30.15F
SIDNEY         PTSUNNY   56  32  40 SE6       30.16F
$$

NEZ057>060-069>072-079>082-222100-
SOUTHWEST NEBRASKA

CITY           SKY/WX    TMP DP  RH WIND       PRES   REMARKS
NORTH PLATTE   CLOUDY    57  39  51 MISG      30.20F
IMPERIAL       CLOUDY    50  36  58 E6        30.21S
LEXINGTON      PTSUNNY   57  40  52 SE7       30.21S
MCCOOK         PTSUNNY   55  38  52 MISG      30.20F
OGALLALA       CLOUDY    51  38  60 E3        30.21S
$$

NEZ005>010-023>029-035>040-094-222100-
NORTH CENTRAL NEBRASKA

CITY           SKY/WX    TMP DP  RH WIND       PRES   REMARKS
VALENTINE      MOSUNNY   59  37  44 SE13G22   30.18F
AINSWORTH      PTSUNNY   59  40  49 S13       30.19F
BROKEN BOW     SUNNY     57  40  52 SE8       30.20F
O`NEILL        SUNNY     64  30  28 SE6       30.21F
ORD            SUNNY     61  32  33 E6        30.19F
THEDFORD       PTSUNNY   57  37  48 S10       30.20F
$$

NEZ041-046>049-061>064-073>077-083>087-222100-
SOUTH CENTRAL NEBRASKA

CITY           SKY/WX    TMP DP  RH WIND       PRES   REMARKS
GRAND ISLAND   SUNNY     64  37  36 NE9       30.19F
AURORA         SUNNY     64  32  30 E8G16     30.18F
HASTINGS       SUNNY     62  38  40 NE12      30.18F
HEBRON         CLOUDY    62  35  36 E13       30.17F
HOLDREGE       CLOUDY    56  40  53 CALM      30.20F
KEARNEY        SUNNY     59  37  44 E10       30.20F
YORK             N/A     64  32  29 E13G18    30.18F
$$

NEZ011>018-030>034-042>045-222100-
NORTHEAST NEBRASKA

CITY           SKY/WX    TMP DP  RH WIND       PRES   REMARKS
NORFOLK        SUNNY     64  31  28 E10G17    30.18F
ALBION         SUNNY     62  32  31 E8        30.19F
BLAIR          SUNNY     68  33  26 NE9G21    30.17F
COLUMBUS       SUNNY     65  33  30 E10       30.19F
FREMONT        CLOUDY    66  33  28 NE9       30.19F
TEKAMAH        MOSUNNY   68  28  22 VRB5      30.17F
WAYNE          SUNNY     65  29  25 S6        30.20F
$$

NEZ050>053-065>068-078-088>093-222100-
SOUTHEAST NEBRASKA

CITY           SKY/WX    TMP DP  RH WIND       PRES   REMARKS
LINCOLN        CLOUDY    66  33  29 NE12      30.18F
OMAHA EPPLEY   PTSUNNY   69  32  25 E13G24    30.17F
BEATRICE       CLOUDY    64  38  38 N9        30.16F
FALLS CITY     PTSUNNY   67  39  35 E8        30.12F
NEBRASKA CITY  CLOUDY    67  36  32 E10G16    30.15F
PLATTSMOUTH    CLOUDY    67  31  26 E8G16     30.16F
$$

NEZ044-045-051>053-067-222100-
OMAHA AREA

CITY           SKY/WX    TMP DP  RH WIND       PRES   REMARKS
OMAHA EPPLEY   PTSUNNY   69  32  25 E13G24    30.17F
BLAIR          SUNNY     68  33  26 NE9G21    30.17F
FREMONT        CLOUDY    66  33  28 NE9       30.19F
MILLARD        CLOUDY    68  33  28 E7        30.16F
OFFUTT AFB     PTSUNNY   68  32  26 NE5       30.15F
PLATTSMOUTH    CLOUDY    67  31  26 E8G16     30.16F
WAHOO          CLOUDY    65  28  24 NE7       30.17F
$$




USA.gov is the U.S. government's official web portal to all federal, state and local government web resources and services.